This is the latest recevied weather packets stored in our database for station/object WA1TYB-13. If no packets are shown the sender has not sent any weather packets the latest 10 day(s).
| Time | Temp. | Humidity | Pressure | Rain* | Wind** | Luminosity | Snow |
|---|---|---|---|---|---|---|---|
| 1778186837 | 18.89° C | 43% | 1015 hPa | 0 mm | - | 483 W/m² | - |
| 1778186536 | 18.33° C | 43% | 1014.7 hPa | 0 mm | - | 894 W/m² | - |
| 1778186233 | 18.33° C | 42% | 1014.8 hPa | 0 mm | - | 441 W/m² | - |
| 1778185930 | 17.78° C | 46% | 1014.9 hPa | 0 mm | - | 328 W/m² | - |
| 1778185626 | 17.22° C | 44% | 1014.9 hPa | 0 mm | - | 306 W/m² | - |
| 1778185322 | 17.22° C | 43% | 1015 hPa | 0 mm | - | 281 W/m² | - |
| 1778185017 | 17.78° C | 44% | 1014.8 hPa | 0 mm | - | 285 W/m² | - |
| 1778184714 | 17.22° C | 43% | 1015 hPa | 0 mm | - | 355 W/m² | - |
| 1778184411 | 17.22° C | 43% | 1014.8 hPa | 0 mm | - | 340 W/m² | - |
| 1778184107 | 17.22° C | 40% | 1014.9 hPa | 0 mm | - | 402 W/m² | - |
| 1778183803 | 17.22° C | 42% | 1014.8 hPa | 0 mm | - | 363 W/m² | - |
| 1778183501 | 17.22° C | 43% | 1014.8 hPa | 0 mm | - | 320 W/m² | - |
| 1778183197 | 18.33° C | 45% | 1015.1 hPa | 0 mm | - | 522 W/m² | - |
| 1778182893 | 17.78° C | 41% | 1015 hPa | 0 mm | - | 740 W/m² | - |
| 1778182590 | 17.78° C | 44% | 1014.9 hPa | 0 mm | - | 202 W/m² | - |
| 1778182287 | 17.22° C | 44% | 1015.2 hPa | 0 mm | - | 740 W/m² | - |
| 1778181983 | 17.22° C | 49% | 1015.1 hPa | 0 mm | - | 775 W/m² | - |
| 1778181681 | 16.11° C | 49% | 1015.1 hPa | 0 mm | - | 843 W/m² | - |
| 1778181376 | 16.11° C | 49% | 1015.1 hPa | 0 mm | - | 375 W/m² | - |
| 1778181073 | 15.56° C | 49% | 1015.2 hPa | 0 mm | - | 301 W/m² | - |
| 1778180770 | 16.11° C | 50% | 1015.2 hPa | 0 mm | - | 272 W/m² | - |
| 1778180469 | 16.11° C | 52% | 1015.4 hPa | 0 mm | - | 330 W/m² | - |
| 1778180167 | 16.11° C | 51% | 1015.3 hPa | 0 mm | - | 306 W/m² | - |
| 1778179863 | 15.56° C | 55% | 1015.6 hPa | 0 mm | - | 316 W/m² | - |
| 1778179561 | 15.56° C | 56% | 1015.6 hPa | 0 mm | - | 278 W/m² | - |
* Rain latest hour (hover to see other rain measurements)
** Current wind speed in m/s (hover to see current wind gust speed)